Saipan, MP

4:17 AM ChST on October 21, 2017 (GMT +1000)
Saipan International

Weather History for PGSN - November, 2012

Change the Weather History Date:

Thursday, November 1, 2012

  Actual Average Record
Temperature  
Mean Temperature 83 °F -  
Max Temperature 87 °F 84 °F 88 °F (2015)
Min Temperature 79 °F 75 °F 32 °F (1999)
Cooling Degree Days 18    
Growing Degree Days 33 (Base 50)    
Moisture  
Dew Point 70 °F    
Average Humidity 67    
Maximum Humidity 77    
Minimum Humidity 57    
Precipitation  
Precipitation 0.01 in - - ()
Sea Level Pressure  
Sea Level Pressure 29.95 in    
Wind  
Wind Speed 11 mph (NE)    
Max Wind Speed 17 mph    
Max Gust Speed 20 mph    
Visibility 10 miles    
Events      
Averages and records for this station are not official NWS values.
T = Trace of Precipitation, MM = Missing Value Source: NWS Daily Summary

Daily Weather History Graph

Daily Weather History Graph

Search for Another Location

Airport or City:

Trip Planner

Search our weather history database for the weather conditions in past years. The results will help you decide how hot, cold, wet, or windy it might be!

Date:

Astronomy

Nov. 01, 2012 Rise Set
Actual Time 6:13 AM ChST 5:48 PM ChST
Civil Twilight 5:50 AM ChST 6:10 PM ChST
Nautical Twilight 5:25 AM ChST 6:35 PM ChST
Astronomical Twilight 5:00 AM ChST 7:00 PM ChST
Moon 7:32 PM ChST (11/1) 7:55 AM ChST (11/1)
Length of Visible Light 12h 19m
Length of Day
11h 35m
Waning Gibbous, 95% of the Moon is Illuminated
Nov 1
Waning Gibbous
Nov 7
Last Quarter
Nov 14
New
Nov 21
First Quarter
Nov 29
Full

Hourly Weather History & Observations

Time (ChST) Temp. Heat Index Dew Point Humidity Pressure Visibility Wind Dir Wind Speed Gust Speed Precip Events Conditions
12:54 AM 81.0 °F 85.8 °F 73.0 °F 77% 29.97 in 10.0 mi NE 8.1 mph - 0.01 in   Overcast
1:54 AM 81.0 °F 85.8 °F 73.0 °F 77% 29.96 in 10.0 mi ENE 10.4 mph - 0.00 in   Overcast
2:54 AM 80.1 °F 83.8 °F 72.0 °F 76% 29.95 in 10.0 mi NNE 4.6 mph - N/A   Scattered Clouds
3:54 AM 80.1 °F 83.8 °F 72.0 °F 76% 29.95 in 10.0 mi NE 6.9 mph - N/A   Mostly Cloudy
4:54 AM 79.0 °F - 71.1 °F 77% 29.95 in 10.0 mi NE 9.2 mph - N/A   Scattered Clouds
5:54 AM 80.1 °F 83.6 °F 71.1 °F 74% 29.96 in 10.0 mi NE 9.2 mph - N/A   Scattered Clouds
6:54 AM 80.1 °F 83.6 °F 71.1 °F 74% 29.99 in 10.0 mi NE 6.9 mph - N/A   Scattered Clouds
7:54 AM 82.9 °F 88.0 °F 72.0 °F 69% 30.01 in 10.0 mi NE 12.7 mph - N/A   Scattered Clouds
8:54 AM 84.9 °F 89.4 °F 70.0 °F 61% 30.02 in 10.0 mi NE 11.5 mph - N/A   Partly Cloudy
9:54 AM 86.0 °F 91.5 °F 71.1 °F 61% 30.02 in 10.0 mi ENE 16.1 mph - N/A   Partly Cloudy
10:54 AM 87.1 °F 92.8 °F 71.1 °F 59% 30.01 in 10.0 mi ENE 13.8 mph - N/A   Scattered Clouds
11:54 AM 87.1 °F 92.0 °F 70.0 °F 57% 29.97 in 10.0 mi ENE 17.3 mph - N/A   Scattered Clouds
12:54 PM 87.1 °F 92.8 °F 71.1 °F 59% 29.94 in 10.0 mi ENE 17.3 mph - N/A   Partly Cloudy
1:54 PM 87.1 °F 92.8 °F 71.1 °F 59% 29.92 in 10.0 mi ENE 12.7 mph - N/A   Partly Cloudy
2:54 PM 84.9 °F 90.1 °F 71.1 °F 63% 29.91 in 10.0 mi ENE 12.7 mph - N/A   Scattered Clouds
3:54 PM 84.9 °F 89.4 °F 70.0 °F 61% 29.91 in 10.0 mi NE 12.7 mph - N/A   Partly Cloudy
4:54 PM 84.0 °F 87.8 °F 69.1 °F 61% 29.91 in 10.0 mi NE 12.7 mph - N/A   Scattered Clouds
5:19 PM 82.4 °F 85.4 °F 68.0 °F 62% 29.85 in 2.5 mi NE 12.7 mph - N/A   Haze
5:28 PM 82.4 °F 85.4 °F 68.0 °F 62% 29.86 in 10.0 mi NE 11.5 mph - N/A   Partly Cloudy
5:54 PM 81.0 °F 83.8 °F 68.0 °F 65% 29.92 in 10.0 mi NE 12.7 mph 19.6 mph N/A   Partly Cloudy
6:54 PM 81.0 °F 84.1 °F 69.1 °F 67% 29.94 in 10.0 mi ENE 13.8 mph - N/A   Scattered Clouds
7:54 PM 81.0 °F 84.4 °F 70.0 °F 69% 29.96 in 10.0 mi ENE 12.7 mph - N/A   Partly Cloudy
8:54 PM 81.0 °F 84.4 °F 70.0 °F 69% 29.96 in 10.0 mi ENE 12.7 mph - N/A   Scattered Clouds
9:54 PM 81.0 °F 84.1 °F 69.1 °F 67% 29.97 in 10.0 mi ENE 13.8 mph - N/A   Partly Cloudy
10:54 PM 81.0 °F 84.1 °F 69.1 °F 67% 29.98 in 10.0 mi ENE 10.4 mph - N/A   Scattered Clouds
11:54 PM 81.0 °F 84.1 °F 69.1 °F 67% 29.97 in 10.0 mi NE 12.7 mph - N/A   Scattered Clouds